Weather History for KONT - May, 2014

Change the Weather History Date:

Thursday, May 1, 2014

  Actual Average Record
Temperature  
Mean Temperature 81 °F 65 °F  
Max Temperature 94 °F 77 °F 94 °F (2004)
Min Temperature 68 °F 54 °F 42 °F (1999)
Degree Days  
Heating Degree Days 0 2  
Month to date heating degree days 0 2  
Since 1 July heating degree days 822 1495  
Cooling Degree Days 16 2  
Month to date cooling degree days 16 2  
Year to date cooling degree days 186 61  
Growing Degree Days 31 (Base 50)    
Moisture  
Dew Point 14 °F    
Average Humidity 11    
Maximum Humidity 16    
Minimum Humidity 5    
Precipitation  
Precipitation 0.00 in 0.02 in 0.33 in (1979)
Month to date precipitation 0.00 0.02  
Year to date precipitation 3.42 9.98  
Since 1 July precipitation 4.34  
Snow  
Snow 0.00 in - - ()
Month to date snowfall 0.0  
Year to date snowfall 0.0  
Since 1 July snowfall 0.0  
Snow Depth 0.00 in    
Sea Level Pressure  
Sea Level Pressure 29.96 in    
Wind  
Wind Speed 15 mph (NNE)    
Max Wind Speed 32 mph    
Max Gust Speed 48 mph    
Visibility 10 miles    
Events      
T = Trace of Precipitation, MM = Missing Value Source: NWS Daily Summary

Daily Weather History Graph

Daily Weather History Graph

Search for Another Location

Airport or City:

Trip Planner

Search our weather history database for the weather conditions in past years. The results will help you decide how hot, cold, wet, or windy it might be!

Date:

Astronomy

May. 01, 2014 Rise Set
Actual Time 6:01 AM PDT 7:34 PM PDT
Civil Twilight 5:34 AM PDT 8:01 PM PDT
Nautical Twilight 5:02 AM PDT 8:33 PM PDT
Astronomical Twilight 4:28 AM PDT 9:07 PM PDT
Moon 7:54 AM PDT (5/1) 10:08 PM PDT (5/1)
Length of Visible Light 14h 26m
Length of Day
13h 33m
Waxing Crescent, 7% of the Moon is Illuminated
May 1
Waxing Crescent
May 6
First Quarter
May 14
Full
May 21
Last Quarter
May 28
New

Hourly Weather History & Observations

Time (PDT) Temp. Dew Point Humidity Pressure Visibility Wind Dir Wind Speed Gust Speed Precip Events Conditions
12:53 AM 69.1 °F 21.0 °F 16% 29.95 in 10.0 mi NNW 5.8 mph - N/A   Clear
1:53 AM 73.0 °F 16.0 °F 11% 29.95 in 10.0 mi North 6.9 mph - N/A   Clear
2:53 AM 79.0 °F 9.0 °F 7% 29.93 in 10.0 mi ENE 17.3 mph 24.2 mph N/A   Clear
3:53 AM 77.0 °F 6.1 °F 7% 29.97 in 10.0 mi NNE 19.6 mph 25.3 mph N/A   Clear
4:53 AM 75.9 °F 5.0 °F 6% 29.98 in 10.0 mi NNE 17.3 mph 28.8 mph N/A   Clear
5:53 AM 75.0 °F 6.1 °F 7% 29.98 in 10.0 mi NE 18.4 mph 25.3 mph N/A   Scattered Clouds
6:53 AM 75.9 °F 8.1 °F 7% 30.00 in 10.0 mi NE 18.4 mph 26.5 mph N/A   Mostly Cloudy
7:53 AM 78.1 °F 10.9 °F 8% 30.01 in 10.0 mi NE 26.5 mph 35.7 mph N/A   Mostly Cloudy
8:53 AM 80.1 °F 12.9 °F 8% 30.01 in 10.0 mi NE 20.7 mph 40.3 mph N/A   Mostly Cloudy
9:53 AM 82.0 °F 12.9 °F 7% 30.00 in 10.0 mi ENE 21.9 mph 39.1 mph N/A   Widespread Dust
10:53 AM 84.9 °F 12.0 °F 7% 30.00 in 10.0 mi ENE 26.5 mph 38.0 mph N/A   Widespread Dust
11:53 AM 88.0 °F 14.0 °F 6% 30.00 in 10.0 mi ENE 24.2 mph 36.8 mph N/A   Mostly Cloudy
12:53 PM 91.0 °F 12.9 °F 6% 29.98 in 10.0 mi NE 17.3 mph 34.5 mph N/A   Mostly Cloudy
1:53 PM 91.4 °F 12.2 °F 5% 30.02 in 10.0 mi Variable 5.8 mph - N/A   Mostly Cloudy
2:53 PM 91.9 °F 16.0 °F 6% 29.94 in 10.0 mi Calm Calm - N/A   Mostly Cloudy
3:53 PM 91.9 °F 12.9 °F 5% 29.92 in 10.0 mi WSW 4.6 mph - N/A   Mostly Cloudy
4:53 PM 91.9 °F 14.0 °F 6% 29.90 in 10.0 mi Calm Calm - N/A   Mostly Cloudy
5:53 PM 93.0 °F 12.0 °F 5% 29.89 in 10.0 mi SW 12.7 mph - N/A   Mostly Cloudy
6:53 PM 86.0 °F 19.0 °F 8% 29.91 in 10.0 mi WNW 12.7 mph - N/A   Mostly Cloudy
7:53 PM 81.0 °F 18.0 °F 10% 29.93 in 10.0 mi West 9.2 mph - N/A   Mostly Cloudy
8:53 PM 75.9 °F 19.9 °F 12% 29.95 in 10.0 mi Calm Calm - N/A   Mostly Cloudy
9:53 PM 75.0 °F 21.9 °F 14% 29.96 in 10.0 mi Calm Calm - N/A   Mostly Cloudy
10:53 PM 73.0 °F 25.0 °F 17% 29.96 in 10.0 mi Calm Calm - N/A   Mostly Cloudy
11:53 PM 70.0 °F 28.9 °F 22% 29.96 in 10.0 mi NE 3.5 mph - N/A   Mostly Cloudy